Theta_e
315 318 320 319 318 317 318 317 317 317 317 318 319 319 319 318 318 318 318 319 317 317 316 317 317 315 315 315 314 314 314 315 315 316 316 314 311 309 308 308 306 305 305 304 303 303 302 301 301 301 301 301 301 302 302 303 304 304 306 307 308 309 310 311 312 315 317 317 318 318 318 319 319 319 319 320 320 321 320 320 319 319 319 318 319 319
316 319 320 319 317 317 318 318 318 318 318 318 319 319 319 319 319 317 319 318 316 316 316 316 316 315 314 314 314 314 315 316 316 315 314 311 309 309 308 307 306 305 305 303 302 302 301 301 300 300 300 300 300 301 301 302 302 303 304 305 306 306 307 308 309 311 313 315 316 316 316 317 317 317 317 317 317 318 318 317 317 317 317 316 317 317
319 319 319 317 317 318 318 318 319 319 319 319 320 320 321 320 319 319 318 317 315 315 316 316 315 315 314 314 314 314 315 316 315 313 311 309 309 308 307 306 305 305 304 303 302 301 301 300 300 300 300 300 300 300 300 300 301 301 303 303 304 304 305 306 307 308 310 312 313 314 314 314 314 314 314 315 315 315 315 315 315 314 314 314 314 315
322 320 317 317 317 318 318 318 319 319 319 320 320 320 321 320 320 320 318 316 315 314 316 315 315 314 314 314 314 315 316 314 311 310 310 309 308 307 307 306 305 304 303 302 301 301 300 299 299 299 299 299 299 299 299 299 299 300 301 301 302 303 303 304 305 306 308 309 310 310 311 311 311 311 311 311 311 311 312 312 312 312 311 312 312 312
321 320 318 318 318 318 318 319 320 320 319 321 322 321 320 319 320 320 318 317 315 316 316 315 317 317 315 316 317 318 318 313 310 310 309 309 309 307 307 306 305 304 302 301 301 300 299 299 299 298 299 299 299 299 299 299 298 299 299 300 300 301 302 303 304 305 306 307 307 308 308 308 308 308 309 308 308 308 308 309 309 308 308 309 309 310
319 319 319 318 318 319 319 319 320 322 320 321 323 323 320 318 319 319 319 318 318 320 317 316 322 323 319 320 319 319 318 312 309 310 308 308 308 306 306 305 305 304 302 301 300 299 299 298 298 298 298 298 298 298 298 299 298 298 298 298 299 299 301 302 302 303 304 305 305 306 306 306 306 307 307 307 307 307 307 306 306 306 306 306 306 307
318 318 319 319 319 321 322 320 319 321 320 320 323 322 319 317 319 319 318 319 320 321 316 315 322 322 319 319 318 319 318 312 309 310 308 307 306 305 305 304 304 303 302 301 300 299 299 298 298 297 297 297 297 297 298 298 298 298 298 298 298 298 299 300 301 302 303 303 304 304 304 305 305 305 305 305 305 305 305 305 305 304 304 304 304 304
318 319 320 319 319 321 322 321 319 319 320 322 322 320 317 315 318 319 318 320 321 319 317 316 320 321 319 318 317 319 319 313 309 309 308 307 305 304 304 304 303 302 301 301 300 299 298 298 297 297 297 297 297 297 297 297 297 297 297 297 297 297 297 298 299 300 301 302 302 302 303 303 303 303 304 304 304 304 304 303 303 303 303 302 302 302
318 321 322 320 320 321 320 320 321 319 319 322 320 317 316 315 316 318 318 320 319 318 320 320 319 322 322 319 318 319 317 314 310 309 308 306 305 304 303 303 302 302 301 301 300 299 298 297 297 297 296 296 296 296 296 296 296 296 297 297 297 297 297 297 297 298 299 299 300 300 301 301 301 302 302 303 303 303 303 303 303 302 302 301 301 301
316 316 317 318 321 320 318 320 323 322 319 319 317 316 317 317 318 318 319 319 318 318 320 321 320 322 323 320 319 320 318 313 310 309 308 306 305 304 303 303 302 301 301 300 299 298 297 297 297 296 296 295 295 295 295 295 295 295 295 296 296 296 296 296 296 296 297 297 298 298 299 299 300 300 301 301 301 302 302 302 302 302 302 302 301 300
313 310 311 315 318 317 316 318 320 322 320 316 316 316 318 320 319 319 319 317 318 321 321 321 319 320 325 326 320 318 318 314 310 309 307 305 304 303 302 302 301 301 301 300 299 297 297 297 296 296 296 295 295 294 294 294 293 294 294 294 295 295 295 295 295 295 295 296 296 296 297 297 298 298 299 299 300 300 300 300 301 301 301 301 301 300
314 313 314 316 315 314 316 317 316 316 316 315 316 316 318 322 319 318 319 318 320 324 324 322 320 319 324 327 318 314 315 313 311 309 306 304 303 302 302 301 301 300 300 299 299 298 297 296 296 296 295 295 294 294 294 293 293 293 293 293 293 293 294 294 294 294 294 294 294 294 295 295 296 297 297 297 298 298 298 299 299 300 300 300 300 300
320 318 316 315 315 313 315 316 315 315 314 315 315 314 318 323 322 322 323 322 323 325 323 323 323 321 321 321 316 314 312 311 311 308 306 304 302 301 300 300 301 300 299 299 299 298 297 296 296 295 295 294 294 294 294 293 292 292 292 292 292 292 293 293 293 293 293 292 293 293 293 294 294 295 295 295 295 296 296 297 298 298 298 299 299 299
323 321 317 317 317 314 313 315 318 319 315 313 316 319 322 323 323 324 325 324 325 324 321 320 322 323 321 318 317 313 308 307 307 306 305 303 301 300 300 300 300 299 299 298 297 297 296 295 295 295 295 294 294 294 294 293 292 292 291 291 291 291 291 292 292 292 292 292 291 291 292 292 292 293 293 293 294 294 294 295 296 296 297 297 297 297
324 324 320 320 319 314 312 314 317 319 316 314 316 322 325 323 323 323 323 324 326 325 321 319 321 324 321 315 312 308 305 305 303 303 302 301 301 300 299 299 299 298 298 298 297 296 295 294 295 294 294 294 294 294 293 293 292 291 291 291 290 290 290 291 291 291 291 291 290 290 290 290 290 291 292 292 292 292 293 293 293 294 294 295 295 296
322 323 320 318 316 312 313 315 314 316 319 319 317 320 323 323 322 322 323 323 324 325 323 321 324 324 317 311 307 306 305 303 302 302 301 300 300 300 299 298 298 297 297 297 296 295 294 294 294 294 294 294 294 293 293 292 292 291 290 290 289 289 289 289 290 290 290 290 289 289 289 288 289 289 289 290 290 291 291 292 292 292 292 293 293 294
323 323 319 317 314 312 314 316 313 315 320 320 320 322 321 319 319 322 324 322 321 324 322 320 322 320 315 312 307 305 305 303 303 301 300 300 299 299 299 298 298 297 297 296 296 295 293 293 294 294 293 293 293 293 292 291 291 290 290 289 288 288 288 288 288 288 289 289 288 288 288 287 287 287 287 288 288 288 289 289 290 291 292 292 292 292
323 323 320 318 319 315 312 314 313 313 317 319 321 320 317 318 320 320 321 321 322 323 321 319 320 318 317 316 309 306 305 303 302 301 300 300 299 298 298 298 297 297 296 296 295 294 293 293 293 293 293 293 293 293 292 291 291 290 289 288 288 287 287 287 287 287 287 288 288 287 287 287 286 286 286 286 286 286 287 287 287 288 289 290 291 291
321 322 320 318 320 316 311 314 317 315 316 317 317 316 316 321 322 320 320 321 322 322 320 319 319 317 318 317 312 309 307 303 302 302 300 299 298 298 298 297 297 296 296 296 295 295 294 293 293 293 293 293 293 293 292 292 291 290 290 289 288 288 288 287 287 287 287 287 287 287 286 286 286 286 286 285 285 286 286 286 285 286 286 287 288 289
320 322 322 318 317 318 315 317 320 318 316 315 314 314 317 319 319 319 320 320 321 320 320 319 318 318 317 314 312 310 306 304 303 302 300 299 298 298 298 298 296 296 296 295 295 294 293 293 293 293 293 293 293 293 292 291 290 290 289 289 289 288 288 287 287 288 288 288 287 287 287 286 286 286 286 285 285 285 285 285 285 285 285 285 285 286
319 320 321 318 316 318 318 318 318 317 317 317 316 315 316 317 318 318 318 319 319 318 320 319 318 320 315 309 309 309 306 305 303 301 300 299 298 298 298 298 297 296 296 295 295 294 293 292 292 292 292 293 292 292 292 291 290 289 288 288 288 288 287 287 287 287 288 288 287 287 287 287 287 287 286 286 286 285 285 285 285 285 285 285 285 285
318 318 320 319 318 318 318 316 315 315 315 316 316 315 316 316 317 318 317 317 318 317 318 318 319 320 312 306 307 307 305 305 302 300 300 298 298 298 297 297 297 296 295 294 294 293 292 292 292 292 292 292 291 291 291 291 290 289 289 288 288 288 287 287 287 287 287 287 287 287 287 287 287 287 287 287 286 286 285 285 285 285 285 285 285 285
317 317 318 318 318 317 316 314 314 314 313 314 315 315 316 316 316 318 318 317 317 317 317 317 318 317 310 304 305 305 303 303 301 300 300 299 298 298 297 297 296 295 294 294 293 292 291 291 291 291 291 291 291 291 291 291 290 289 289 289 288 288 288 288 287 287 287 287 287 287 287 287 286 286 287 287 287 286 286 285 285 285 285 285 285 285
315 316 317 317 316 315 315 313 313 315 315 315 315 314 315 315 315 317 316 315 316 316 316 316 316 316 310 303 303 303 302 302 301 300 300 299 299 298 297 296 295 294 294 293 292 292 291 291 291 291 291 291 291 291 291 290 290 289 289 289 288 288 288 288 287 287 286 286 286 286 286 286 286 286 286 286 287 287 286 285 285 284 284 284 284 284
315 316 317 316 316 315 315 313 314 318 318 316 315 314 314 314 315 316 314 314 315 315 315 315 315 315 310 303 302 302 302 302 302 301 301 301 300 298 297 296 295 293 293 292 292 291 291 291 291 290 291 290 290 290 290 290 290 289 289 289 288 288 288 288 287 287 286 286 286 286 286 286 286 285 285 285 286 286 286 285 284 284 284 283 283 284
314 314 315 315 315 314 313 313 314 316 315 313 314 314 313 312 312 313 313 313 313 313 314 314 314 313 310 305 304 303 302 302 302 301 301 301 301 299 297 296 294 293 292 291 291 292 291 290 290 290 290 290 290 289 289 289 289 289 289 288 288 288 287 287 287 287 286 286 285 285 285 285 285 285 284 284 285 286 285 284 284 283 283 283 283 283
312 312 313 314 314 313 312 313 312 312 311 310 311 311 310 309 309 309 310 309 309 309 309 309 309 309 309 308 308 307 305 305 304 302 301 300 300 300 298 296 294 293 292 292 292 292 292 291 290 290 290 290 289 289 289 289 289 289 289 288 288 288 287 287 287 286 286 286 285 285 285 285 284 284 284 284 284 284 284 284 283 283 283 283 283 283
310 311 311 311 312 312 311 310 309 308 307 307 308 308 308 308 308 309 308 306 307 309 308 307 307 308 307 307 308 308 307 306 305 304 302 300 299 298 297 296 295 294 292 292 292 292 292 292 291 290 290 290 290 290 290 289 289 289 289 289 288 288 287 287 287 286 286 285 285 285 284 284 284 284 284 284 284 284 283 283 283 283 282 282 282 282
308 309 308 307 307 307 306 306 305 305 305 305 306 306 306 307 307 307 307 306 307 308 307 307 307 308 307 306 307 306 305 305 304 304 304 302 299 297 297 296 295 294 293 293 293 293 293 292 291 290 290 290 290 290 290 290 289 289 289 289 288 288 287 287 287 286 286 285 285 285 284 284 284 283 283 283 283 283 283 283 283 283 282 282 282 281
307 308 307 306 306 306 305 305 305 305 305 305 305 306 306 306 306 306 306 306 307 307 307 307 307 307 306 306 305 305 304 303 302 302 302 302 299 298 297 296 295 294 293 293 293 293 293 291 290 290 290 290 290 290 290 289 289 289 289 288 288 288 287 287 286 286 286 285 285 284 284 284 283 283 283 282 282 282 282 282 282 282 282 282 282 281
307 307 305 304 305 305 305 305 305 306 306 305 305 306 306 306 306 306 306 306 307 306 306 306 306 305 305 304 304 303 302 301 300 299 298 298 298 297 297 297 296 295 294 293 293 293 293 291 289 290 290 290 290 290 289 289 289 289 289 288 288 287 287 286 286 286 285 285 285 284 284 283 283 283 282 282 282 282 282 281 281 281 281 281 281 281
307 306 304 304 304 303 303 303 304 304 305 305 304 304 304 305 305 305 305 305 305 305 305 304 304 304 304 305 303 302 300 300 298 297 296 295 296 295 295 296 297 296 295 295 294 293 293 292 290 289 290 290 290 290 289 289 289 289 288 288 287 287 287 286 285 285 285 285 284 284 283 283 282 282 282 282 281 281 281 281 281 281 280 280 280 280
305 304 304 304 303 303 303 303 303 303 303 302 302 302 302 302 303 303 303 304 304 304 304 303 303 304 303 302 301 301 300 299 297 295 295 294 294 293 293 294 295 296 296 295 294 294 293 291 290 289 290 290 289 290 289 289 289 288 288 288 287 286 286 285 284 284 284 284 283 283 283 282 282 282 281 281 281 281 281 280 280 280 280 279 279 279
304 304 303 303 303 302 302 302 302 302 301 301 301 301 301 301 302 302 302 303 303 302 303 302 301 302 302 300 299 299 298 296 294 293 293 293 292 292 293 293 294 294 294 294 294 293 291 290 290 290 290 290 290 289 289 289 288 288 287 287 286 285 285 284 283 283 282 282 282 282 282 281 281 281 281 280 280 280 280 280 279 279 279 278 278 278
303 303 302 302 302 301 301 301 300 299 299 301 303 302 300 300 301 301 301 301 301 301 301 300 300 301 300 298 296 294 292 292 292 292 292 292 293 293 293 293 293 293 293 294 294 292 290 290 290 290 289 290 289 289 288 288 287 287 286 286 285 284 283 283 282 281 281 281 281 281 281 281 280 280 279 279 280 279 279 278 278 278 278 277 277 277
302 302 301 301 300 300 299 299 298 297 297 300 302 300 299 299 300 299 299 299 299 300 299 299 300 298 296 294 292 291 291 291 291 292 292 293 293 294 293 293 294 293 293 292 292 291 290 290 290 290 290 289 289 288 288 287 286 286 285 284 284 283 282 281 280 280 280 280 280 280 279 279 279 278 278 278 278 278 277 277 276 276 276 276 276 275
300 300 300 299 299 299 299 298 298 297 297 298 298 297 297 298 298 298 299 299 299 299 298 299 299 296 292 291 290 290 291 292 292 292 292 293 293 293 293 293 293 293 291 291 291 291 291 290 290 290 289 288 288 287 287 286 285 284 284 283 282 281 280 279 279 279 278 278 278 278 278 277 277 277 277 276 276 275 275 275 274 274 274 274 274 274
300 300 299 299 299 299 299 298 298 297 297 297 297 296 296 296 296 296 297 297 299 299 298 298 298 294 291 291 290 291 292 292 292 292 292 293 294 294 294 293 292 292 291 290 291 290 290 290 289 289 288 287 287 286 285 284 284 283 282 281 280 279 278 277 277 277 277 277 276 276 275 275 275 274 274 274 274 273 273 272 272 272 272 272 272 272
298 299 299 299 299 299 299 299 298 297 297 298 297 295 295 296 295 295 295 294 297 300 299 297 296 293 291 291 291 292 292 291 292 293 292 293 293 294 294 293 290 290 290 289 289 289 289 289 288 287 287 286 285 284 283 283 282 280 279 278 278 277 276 276 276 275 275 274 273 273 273 272 272 272 272 271 271 270 270 270 270 270 270 270 270 270
297 298 299 299 298 299 298 298 297 296 296 296 295 294 296 296 295 295 294 293 296 299 297 296 295 293 291 291 292 293 294 293 292 293 292 291 291 290 291 290 289 289 289 289 289 289 288 288 287 286 285 284 283 282 281 280 279 278 277 276 276 275 275 275 274 273 272 272 271 271 270 270 270 269 269 268 268 268 268 268 268 268 268 268 268 268
296 297 298 297 297 298 297 297 297 296 296 297 296 295 296 296 295 294 293 294 297 298 296 296 296 293 292 292 292 293 294 294 293 292 292 291 291 289 289 289 289 289 289 289 289 288 287 287 286 285 284 282 281 280 279 278 277 276 275 275 274 274 274 273 272 271 270 270 269 269 268 268 267 267 267 266 266 266 266 266 266 266 266 266 266 267
295 296 297 296 296 295 295 296 295 295 296 297 296 295 295 295 294 294 294 295 298 298 296 295 295 293 293 294 293 292 293 292 292 292 291 291 291 290 288 288 289 289 289 288 287 286 286 285 284 283 282 280 279 278 276 275 275 274 273 273 273 272 272 271 270 269 268 268 267 267 266 266 265 265 265 265 265 265 265 265 265 265 265 265 265 265
294 295 295 295 294 294 294 294 294 294 295 295 294 294 295 295 295 295 294 294 297 299 297 295 295 294 294 293 292 292 291 291 290 291 291 291 291 290 288 287 288 288 287 287 286 284 284 283 281 280 279 277 276 275 274 274 273 272 271 271 271 270 269 268 268 267 266 266 265 265 265 265 264 264 264 264 264 264 264 264 264 264 264 264 264 264
294 294 294 294 294 294 294 293 294 294 294 294 295 294 295 296 296 295 294 294 295 297 297 295 295 295 294 293 292 292 291 290 290 290 290 290 290 289 287 287 287 287 286 285 284 283 282 281 279 277 276 275 274 273 273 272 271 271 270 270 269 268 267 267 266 265 265 264 264 264 264 264 264 264 264 264 263 264 264 264 264 264 264 264 264 264
294 294 294 293 293 294 294 293 293 293 294 295 295 295 295 295 295 294 294 293 294 294 294 294 293 293 292 292 291 290 290 290 290 290 290 290 290 289 288 286 286 285 284 283 281 280 280 278 276 275 274 273 273 272 271 271 270 269 268 268 268 266 266 265 264 264 264 263 263 263 263 263 263 263 263 263 263 263 263 263 263 263 264 264 264 264
293 293 293 292 292 292 293 292 292 292 292 293 293 294 294 294 294 293 293 293 293 293 293 292 292 292 292 291 290 290 290 290 289 289 289 289 289 288 286 285 284 283 281 280 279 278 277 275 274 273 272 271 271 270 270 269 268 267 267 267 266 265 264 264 263 263 263 263 263 263 263 263 263 263 263 263 263 263 263 263 263 263 263 263 263 263
292 292 291 292 292 291 291 291 292 292 292 291 291 292 293 293 292 292 292 292 292 292 292 292 292 291 291 290 290 290 290 289 289 289 289 289 289 288 284 282 281 280 279 278 277 276 275 274 272 271 271 270 269 269 268 267 266 266 266 266 265 264 264 263 263 263 262 263 263 262 262 262 262 263 263 263 263 263 263 263 263 263 263 263 263 263
292 292 291 291 291 290 290 291 291 291 291 291 291 291 292 292 292 292 292 293 292 292 292 291 291 291 291 290 290 290 289 289 289 289 288 288 288 286 282 279 278 278 276 275 275 274 273 272 271 270 269 268 268 267 266 266 265 265 265 264 264 264 263 263 262 262 262 262 262 262 262 262 262 262 262 262 262 262 262 262 262 262 262 262 262 263
291 292 291 291 291 291 291 291 291 291 291 291 291 291 291 291 291 291 291 291 291 291 291 290 289 289 289 290 290 289 289 289 289 288 288 287 285 282 278 277 276 275 274 273 273 272 271 270 269 269 268 267 267 266 265 265 264 264 264 264 263 263 263 262 262 262 262 262 262 262 262 262 262 262 262 262 262 261 261 261 261 262 262 263 263 264
291 291 291 291 291 291 291 291 291 291 290 290 291 291 291 291 291 290 291 291 290 291 291 291 289 288 288 288 288 288 289 288 286 285 284 283 280 277 275 274 274 273 272 272 271 270 269 269 268 267 266 266 265 264 264 264 264 264 264 263 263 263 262 262 262 262 262 262 262 262 262 261 261 261 261 261 261 261 261 261 262 262 263 264 264 265
291 291 291 291 291 291 291 291 291 291 290 290 291 291 291 292 292 291 291 291 291 291 291 291 290 289 289 287 284 284 286 284 281 280 281 278 275 273 273 273 272 271 270 270 269 269 268 267 267 266 265 265 264 263 263 263 263 264 264 263 263 263 262 262 262 262 262 262 261 261 261 261 261 261 261 261 261 261 261 261 261 262 263 263 264 265
Wind_Speed
4 3 4 4 6 9 10 10 11 10 10 10 8 7 7 6 6 7 10 8 2 0 5 5 6 7 7 9 11 14 14 10 10 9 4 7 9 10 10 10 11 11 10 12 17 21 24 25 25 24 24 24 26 28 29 29 29 28 26 24 24 20 14 11 9 6 3 1 2 3 4 6 7 8 9 10 12 13 12 13 15 16 17 18 21 26
2 4 5 7 10 13 12 11 11 8 7 8 6 5 6 5 7 8 9 9 1 3 4 4 6 8 9 12 14 13 10 9 7 3 8 12 10 9 10 11 10 9 8 10 15 19 23 24 24 24 24 25 26 27 29 29 29 29 28 27 26 23 21 18 14 12 10 7 5 5 4 2 2 3 5 8 9 12 12 12 13 14 15 16 18 22
2 5 8 11 12 12 11 10 10 8 6 6 5 4 4 5 7 7 7 5 2 2 3 5 6 7 11 15 15 13 8 2 6 11 11 11 10 9 10 9 9 8 7 9 12 16 20 23 24 24 24 25 24 24 27 27 28 30 30 28 27 25 25 24 18 15 15 11 7 7 8 6 4 3 1 3 4 8 10 12 13 13 14 15 17 19
3 5 10 13 12 10 10 10 8 7 5 4 4 3 5 5 4 4 3 1 2 2 4 5 6 6 10 14 12 12 5 8 13 14 13 11 11 10 9 9 8 8 7 9 10 12 16 20 23 24 24 23 22 23 27 28 28 29 29 28 27 26 26 25 21 17 16 13 10 9 8 7 6 5 3 3 4 5 7 10 11 12 13 14 15 17
7 6 7 9 10 9 8 8 6 5 4 5 5 5 6 7 6 5 3 3 3 3 4 3 5 4 7 9 8 7 3 12 10 12 13 9 9 10 9 9 8 7 7 9 10 10 13 18 21 23 23 23 23 25 27 29 29 29 28 27 27 27 26 26 23 19 18 16 14 13 12 11 10 8 7 6 5 5 6 7 10 10 12 13 14 16
8 6 4 5 7 6 5 6 6 5 3 5 5 6 7 6 5 4 4 5 4 4 2 2 2 3 3 5 7 7 2 9 7 10 12 8 9 9 8 8 7 6 7 9 10 10 13 16 18 21 23 24 25 25 26 28 31 30 29 28 28 28 27 27 24 20 20 20 19 18 17 16 15 14 12 10 8 6 5 4 6 8 9 10 12 14
4 2 1 2 4 4 4 6 6 5 3 4 3 2 2 0 1 2 3 1 1 3 2 3 0 4 4 6 8 9 4 7 7 8 10 8 8 8 7 7 6 6 6 8 9 10 12 15 16 19 23 24 24 24 25 28 32 33 31 30 29 29 29 27 25 22 22 21 20 19 18 18 18 18 16 14 12 8 6 6 6 7 9 9 9 10
4 4 3 1 3 3 4 5 5 6 4 3 3 2 3 1 1 1 0 2 3 3 4 4 4 5 6 7 8 11 7 7 8 7 9 8 8 9 8 8 6 6 6 7 8 8 10 14 16 18 20 21 21 22 25 29 32 34 33 32 31 32 31 28 26 24 23 22 20 19 18 17 17 16 15 14 12 10 8 7 7 8 9 9 9 9
1 4 3 3 4 4 5 3 2 6 5 2 2 0 2 2 0 1 2 4 3 3 4 5 6 4 6 6 7 12 10 7 8 8 9 9 8 9 9 8 6 5 5 6 6 6 9 13 16 17 18 20 21 23 26 29 32 34 34 34 33 34 33 31 28 26 24 23 21 20 19 17 16 15 13 12 11 11 10 9 7 7 8 9 9 9
1 2 2 4 5 4 3 1 2 1 3 2 2 1 1 2 3 4 5 4 2 3 5 6 7 4 5 5 5 9 8 6 6 6 8 8 8 9 8 7 6 5 5 5 6 7 11 14 15 16 18 20 22 23 26 29 32 34 33 34 34 33 32 32 31 30 28 25 23 21 20 18 17 15 14 13 12 12 12 11 10 9 8 8 9 9
1 2 1 2 3 2 3 3 3 2 2 2 1 1 2 4 4 4 4 3 1 4 7 9 12 8 3 5 3 2 4 9 9 6 7 8 8 9 7 6 5 5 5 5 6 8 11 13 13 14 16 18 21 24 27 31 33 33 32 32 32 32 31 31 31 31 31 29 27 24 22 20 19 17 16 15 16 15 14 13 13 11 10 9 9 9
2 2 1 2 2 2 4 2 2 3 2 1 1 1 3 3 2 2 1 3 2 5 6 6 11 12 5 4 2 5 5 10 11 9 10 10 9 8 8 7 6 5 5 5 5 6 8 9 10 11 12 15 21 26 28 29 30 31 30 30 31 30 30 29 30 30 31 30 29 28 25 23 21 19 18 18 17 17 16 16 15 14 12 12 11 10
3 5 4 2 1 3 4 1 2 3 2 2 2 2 2 2 0 2 1 2 3 5 4 4 1 6 6 6 4 6 7 4 6 8 10 10 9 8 7 7 6 5 4 4 4 5 5 5 6 7 12 17 23 25 25 25 25 27 27 28 29 28 27 27 27 28 29 30 30 28 28 26 24 22 22 21 20 19 18 17 17 16 15 14 13 13
1 2 4 3 1 3 6 4 1 1 2 5 4 4 4 1 2 3 3 3 4 4 2 6 6 1 2 4 3 6 7 7 10 11 10 10 9 8 7 7 6 5 4 4 5 5 3 2 4 9 15 20 22 21 21 21 22 23 24 26 26 25 25 25 25 26 27 27 28 27 27 26 25 24 24 24 23 23 21 20 18 18 17 16 15 15
3 3 3 4 0 5 8 5 1 1 4 6 5 4 4 3 3 4 3 3 3 2 2 2 2 1 2 0 3 8 8 8 10 10 10 10 8 7 7 7 6 5 4 4 5 4 3 5 10 15 18 18 17 17 18 19 20 22 22 22 23 23 23 23 23 24 24 24 25 25 25 26 25 25 24 24 24 24 24 22 21 20 19 18 17 16
4 4 1 1 1 6 6 3 1 3 1 3 1 2 2 3 3 3 4 4 2 2 3 2 2 4 1 4 5 7 8 9 9 9 9 9 7 7 6 6 6 4 3 4 5 4 5 10 14 16 16 15 15 16 17 18 19 20 20 20 21 21 21 22 22 22 22 22 23 24 24 25 25 25 25 24 24 23 23 23 23 23 22 21 20 18
2 3 1 1 1 3 3 1 1 1 0 1 2 1 3 2 2 1 4 3 2 3 4 3 4 4 1 3 5 7 8 8 8 8 9 8 7 7 6 5 4 4 4 5 4 4 6 10 13 14 14 14 14 15 17 17 18 18 19 19 21 22 22 22 21 21 21 21 21 23 23 24 24 24 25 24 24 24 24 24 23 23 22 22 22 21
1 1 3 4 2 1 1 2 2 1 2 3 1 2 1 2 1 1 2 3 4 5 5 5 6 5 3 1 3 6 7 7 7 7 8 7 7 6 5 4 4 4 4 3 3 4 6 9 10 11 12 12 12 13 14 15 15 15 16 18 20 22 23 23 22 22 21 21 21 22 22 23 23 23 23 23 24 23 24 25 25 25 24 23 22 22
2 0 4 2 2 1 0 2 1 2 2 3 2 1 1 1 2 1 2 2 5 6 4 5 7 6 4 2 1 4 7 8 7 7 7 7 6 5 5 5 4 4 3 2 3 3 5 6 7 8 8 9 10 10 11 11 12 13 13 15 17 19 21 21 21 21 21 21 21 21 22 22 22 23 23 24 24 24 24 25 25 26 26 25 24 23
3 1 3 1 4 2 1 1 1 1 3 3 2 2 1 2 2 2 2 2 4 6 5 4 6 5 3 2 2 3 8 9 8 7 6 6 6 5 5 5 4 4 2 2 2 1 2 4 5 5 6 6 7 8 9 10 11 13 13 14 14 15 17 19 20 19 19 19 19 19 21 22 22 23 23 24 25 25 25 25 25 26 26 26 26 25
1 2 3 0 2 2 0 2 4 4 3 0 1 1 1 1 2 2 2 2 3 4 4 5 6 4 1 2 3 5 7 7 7 7 6 5 5 4 4 5 4 4 4 3 3 3 2 3 4 5 4 4 5 6 6 8 10 12 13 15 15 14 15 18 18 18 17 17 17 17 18 20 20 21 22 23 24 25 25 25 25 26 26 26 26 26
0 1 2 2 2 2 3 4 3 3 2 0 1 3 4 2 1 2 4 4 3 3 4 5 7 5 1 2 3 6 5 5 7 7 6 5 5 5 5 5 5 5 5 4 4 3 3 3 3 4 4 4 5 4 4 4 6 9 10 12 13 12 13 15 17 17 17 16 16 16 17 18 19 20 21 21 22 23 23 24 25 25 26 27 27 27
2 1 1 3 4 6 8 7 7 7 7 6 4 3 3 2 2 3 5 3 2 3 4 5 7 4 1 1 2 5 5 6 7 7 7 6 6 6 6 5 5 5 4 4 4 4 3 3 3 3 3 3 3 3 3 3 4 6 7 8 10 10 11 14 15 17 17 16 16 16 16 17 19 20 21 20 20 21 22 23 23 24 25 26 26 27
2 1 1 3 4 6 9 9 8 7 5 5 4 2 1 2 2 2 2 1 1 4 5 5 7 4 2 1 2 3 5 6 5 7 7 6 5 5 6 6 5 5 4 4 4 4 4 2 1 1 2 2 2 3 4 4 4 6 7 7 9 9 10 13 14 16 18 17 17 18 17 17 19 20 21 20 20 21 22 23 23 23 24 25 25 25
1 0 0 2 3 3 5 6 4 3 3 1 2 3 3 4 5 4 0 1 1 5 7 6 6 4 1 1 1 1 3 4 5 5 6 6 6 6 6 6 5 5 4 3 3 3 2 1 1 1 2 2 2 4 5 5 6 7 7 8 10 11 11 13 14 16 18 18 19 20 19 20 21 22 23 22 20 21 23 24 25 26 26 26 25 25
1 1 1 2 3 4 4 4 1 2 2 2 3 4 5 5 6 5 2 3 4 5 5 5 6 4 2 2 3 4 4 5 5 4 4 5 6 6 6 6 5 5 4 3 2 2 1 1 1 1 2 3 4 6 7 8 9 10 11 12 13 15 15 14 15 18 20 21 22 22 22 22 24 26 26 25 23 23 24 26 26 27 29 29 29 28
1 1 2 4 5 5 5 6 5 3 3 4 6 7 8 9 8 5 3 6 6 5 5 8 10 9 8 8 7 4 6 7 6 6 7 7 7 7 6 6 5 4 3 3 2 2 2 3 3 3 3 4 5 6 7 9 10 12 13 14 16 18 18 17 18 20 22 23 24 24 24 25 26 27 28 28 26 26 28 28 28 29 30 31 31 31
2 2 5 5 6 7 7 9 10 8 7 7 8 10 11 10 8 7 8 8 5 4 7 11 11 11 10 11 9 6 4 5 6 7 8 8 8 7 6 5 5 4 4 4 4 4 4 4 4 5 5 5 5 6 6 7 8 10 11 12 14 16 16 16 17 19 21 23 23 24 25 25 27 28 29 29 28 29 30 31 31 32 32 32 32 32
2 3 5 4 6 8 9 10 10 9 8 8 9 11 11 12 12 11 11 10 6 7 10 10 11 13 11 9 10 10 10 10 10 10 8 6 7 6 6 6 6 6 6 6 6 6 6 6 6 7 8 7 7 7 7 7 8 8 9 10 12 14 13 14 15 17 19 20 21 23 25 26 27 28 28 28 28 29 30 32 34 34 35 34 33 32
1 3 4 3 5 8 10 10 8 7 9 10 11 12 13 15 15 13 12 13 11 12 12 12 14 15 11 10 12 10 9 8 7 7 4 4 5 5 6 6 6 6 7 7 7 7 7 7 8 9 9 8 8 8 7 8 8 9 10 11 12 13 12 12 14 16 18 20 21 22 24 25 27 28 29 29 29 30 30 31 33 34 35 37 36 35
1 2 3 2 4 7 9 8 6 5 7 9 11 13 14 15 14 13 13 13 12 12 13 14 14 13 9 7 6 3 3 4 5 5 4 5 5 5 5 6 6 7 7 7 7 7 7 7 7 8 8 8 8 8 8 9 10 10 11 12 13 12 11 12 13 16 18 20 21 23 24 25 27 28 28 29 30 31 32 32 32 33 35 36 37 38
1 2 3 2 4 7 8 9 6 3 4 8 13 16 16 14 12 12 11 10 10 11 13 13 11 9 4 1 2 2 3 4 4 3 2 2 5 6 5 5 6 6 6 6 6 7 6 6 7 8 9 9 9 9 10 10 10 10 11 13 13 12 12 12 14 17 20 21 22 23 24 25 27 27 28 28 29 31 31 32 33 34 35 36 37 38
2 1 1 2 5 7 8 8 3 3 4 9 12 13 14 14 14 13 11 11 13 12 10 10 8 5 3 1 1 1 3 3 2 2 3 2 2 2 3 5 5 6 6 6 6 6 6 7 9 10 10 10 10 10 10 9 8 9 11 12 12 11 11 13 16 19 22 23 23 24 25 25 26 27 29 30 30 30 30 30 32 33 33 34 35 36
4 4 3 4 4 6 7 5 2 2 9 9 4 6 10 11 12 12 11 11 11 8 7 7 5 3 4 3 3 2 2 2 1 2 1 1 1 2 5 6 6 6 6 6 6 6 7 9 11 11 12 12 10 8 7 6 8 11 11 11 10 10 12 15 18 21 22 24 25 25 25 25 25 27 29 30 30 30 30 30 30 32 33 33 33 34
5 5 4 4 4 5 4 4 3 8 10 4 1 4 7 7 7 9 9 10 9 8 9 11 7 4 5 4 4 4 3 2 2 2 3 3 4 5 6 6 6 6 5 5 5 5 7 9 10 11 11 9 6 4 5 9 11 11 10 9 10 12 14 17 19 21 22 24 25 25 25 25 26 28 30 30 29 29 30 31 32 34 34 33 33 35
6 5 3 3 4 3 2 4 7 7 4 4 4 4 2 2 4 7 7 8 8 8 8 6 3 4 6 5 5 4 3 2 3 3 6 7 7 7 7 7 6 5 6 6 6 8 10 11 10 9 6 3 2 5 9 10 9 9 9 9 11 14 16 18 20 21 22 23 24 24 24 25 27 29 30 29 29 30 31 33 34 36 36 36 36 37
7 5 3 3 4 4 4 6 7 7 7 7 7 4 1 2 3 3 3 5 6 5 4 4 5 6 7 6 3 3 4 4 4 5 6 7 9 8 7 6 6 6 8 10 10 11 12 11 7 3 1 3 6 8 9 8 8 8 10 12 14 16 18 19 20 21 21 22 23 23 24 25 27 29 30 30 30 32 34 35 36 37 37 36 37 38
7 6 5 4 5 4 4 6 6 7 8 6 4 3 0 2 2 2 1 3 5 5 3 4 7 7 7 6 5 4 4 4 3 6 5 3 4 4 4 6 9 11 11 11 12 12 10 7 2 2 3 6 7 6 6 7 8 10 13 15 17 19 20 20 20 21 21 22 24 25 26 27 27 29 30 31 32 34 35 36 37 37 36 35 36 38
5 5 5 5 5 5 5 6 6 6 5 3 3 3 1 2 4 6 5 4 3 5 3 4 7 7 7 6 5 5 4 1 4 5 3 1 2 4 5 7 10 11 10 10 11 9 4 1 2 4 5 6 5 4 6 8 11 14 16 18 19 20 20 21 22 22 23 26 28 29 28 28 28 28 30 32 33 34 36 36 36 35 35 34 35 37
2 2 4 5 7 7 7 7 6 5 4 3 5 5 4 3 7 6 7 6 2 3 3 6 8 7 7 6 5 5 4 4 5 5 5 4 5 6 8 9 10 11 11 11 9 4 1 2 3 5 5 5 4 6 9 13 16 18 18 19 20 20 21 23 24 26 29 31 31 30 29 28 29 30 31 32 34 34 35 34 34 34 34 34 35 35
1 1 3 6 7 9 9 7 5 5 5 5 6 6 5 4 5 2 8 5 3 5 5 6 8 8 6 6 5 4 5 6 6 7 7 5 5 8 11 12 12 11 10 7 4 2 2 3 4 5 4 4 6 10 14 16 18 18 19 19 20 21 23 26 29 31 32 32 31 31 31 30 30 31 32 32 33 34 35 33 32 34 35 35 35 35
2 1 2 5 6 6 7 7 6 6 3 3 2 2 3 3 1 5 5 3 5 6 6 6 7 7 6 6 6 6 6 6 6 7 7 6 6 7 9 12 13 9 5 5 4 2 2 3 4 4 4 6 10 13 15 16 17 18 19 19 20 23 26 29 30 31 32 32 33 33 33 33 32 32 32 33 32 33 35 35 33 34 35 34 34 35
3 2 2 4 5 4 5 6 6 5 2 5 4 1 1 3 4 4 2 3 5 6 6 6 7 7 7 7 7 7 7 7 7 7 7 7 7 7 9 12 10 4 5 5 3 2 2 3 4 5 8 11 13 14 14 16 18 18 18 21 23 26 27 28 29 30 32 33 34 34 34 35 35 34 33 33 32 33 35 35 34 34 33 32 32 33
2 3 3 4 3 4 4 5 4 2 2 4 5 3 4 5 5 3 3 3 4 5 5 6 6 8 8 7 7 8 8 8 7 7 7 7 6 7 10 8 3 6 7 5 3 2 3 5 6 8 12 13 12 12 13 15 17 19 21 24 26 27 27 28 29 30 32 33 34 35 35 35 35 34 34 33 33 33 34 34 34 33 31 30 30 30
5 7 6 6 5 5 5 5 2 1 2 4 6 6 7 7 6 5 5 4 5 5 5 5 6 8 8 7 7 7 7 7 7 6 6 6 6 6 5 3 7 8 7 5 3 2 4 7 9 11 12 12 11 12 13 14 17 21 25 26 26 27 27 29 30 31 32 33 33 34 35 35 35 34 34 33 33 33 33 33 32 31 29 29 29 29
7 6 5 4 5 4 4 5 4 5 8 8 6 6 7 7 7 7 6 6 6 6 6 6 7 7 7 7 6 6 6 6 7 7 7 7 6 3 5 7 8 7 5 4 1 4 7 9 11 11 11 11 12 13 14 16 18 22 25 26 27 27 28 29 31 32 32 32 33 33 33 34 35 34 33 32 31 31 31 31 31 31 30 29 29 29
5 7 6 5 6 5 3 5 6 8 10 10 8 7 8 8 9 8 6 6 7 7 7 7 7 7 7 6 6 6 7 7 7 7 7 6 4 3 6 7 6 5 4 2 2 6 9 11 12 12 12 14 14 15 17 19 19 21 24 26 27 27 28 29 30 31 32 32 33 33 32 33 34 34 32 31 31 30 30 30 31 31 30 30 30 29
4 6 7 7 8 7 6 7 9 10 10 9 8 6 6 7 8 8 7 7 7 7 7 7 7 6 5 5 6 6 7 7 7 8 7 4 3 4 5 5 5 4 2 3 5 8 10 11 12 14 14 15 16 18 20 20 20 21 23 25 26 27 29 30 29 30 32 33 33 33 32 31 32 32 32 32 31 31 31 31 31 31 31 31 31 31
4 6 6 4 5 6 7 8 9 8 9 10 10 9 8 9 9 9 8 7 7 7 7 6 6 5 5 6 7 6 7 8 7 6 5 3 4 4 4 4 3 2 4 5 6 8 10 11 13 14 15 17 19 21 21 20 21 22 23 24 25 26 28 30 30 30 31 31 32 32 31 30 30 31 32 34 33 32 32 31 31 32 33 33 32 33
7 9 8 4 5 6 7 7 7 6 7 9 9 10 10 10 9 9 8 7 7 7 7 6 5 4 5 6 6 6 7 7 4 1 2 2 4 5 4 3 3 4 5 6 9 11 12 12 13 14 17 19 20 20 21 21 22 23 23 24 25 25 27 29 30 30 30 30 30 31 31 31 31 32 32 33 33 32 32 31 30 30 33 34 34 34
9 10 9 7 7 8 7 7 8 7 8 9 8 9 9 7 7 8 7 7 8 7 7 7 5 5 5 4 3 4 5 2 1 4 4 4 4 4 3 3 4 5 7 10 12 13 12 13 14 15 18 19 20 21 21 22 23 24 24 24 24 25 26 28 28 29 30 29 30 31 31 31 32 32 31 31 31 31 31 31 30 30 31 33 34 35
Wind_Direction
154 172 187 190 212 233 236 231 236 238 243 259 269 275 278 285 284 277 282 292 19 30 262 271 286 286 286 283 275 271 277 289 283 280 320 52 65 66 65 61 58 57 48 37 34 34 31 27 23 22 24 27 31 33 35 36 35 35 36 35 34 34 36 33 31 34 28 355 302 264 250 250 246 244 241 234 230 230 231 231 232 235 234 229 226 224
154 196 213 207 220 236 243 252 262 267 270 275 280 283 286 282 278 280 285 289 59 122 272 301 300 291 292 282 272 272 279 287 293 353 63 71 70 65 65 61 57 57 47 38 34 33 32 29 27 26 27 29 31 34 37 37 36 37 39 36 32 34 37 35 32 37 38 33 25 19 18 350 279 255 241 238 238 236 238 240 239 240 239 236 233 230
214 222 228 224 231 241 250 262 269 275 284 287 290 292 285 266 273 282 277 280 93 134 276 310 300 293 290 282 279 278 273 308 50 71 74 73 69 61 59 55 50 50 40 38 35 30 30 30 30 29 30 31 31 35 40 42 41 40 40 39 36 35 36 35 34 35 33 31 35 31 27 31 38 53 120 214 229 232 234 239 241 243 245 243 241 238
208 219 225 226 236 245 252 260 263 269 263 252 256 262 265 253 258 271 251 173 89 195 246 285 288 287 283 280 284 278 246 90 77 81 78 75 79 72 65 58 47 40 32 40 39 26 27 30 31 31 30 31 31 35 40 43 44 42 41 41 40 39 39 37 35 37 35 28 28 25 21 23 22 21 358 301 282 259 244 244 248 249 249 250 250 246
237 246 236 221 229 242 252 261 258 263 263 245 229 222 242 245 244 256 290 350 347 284 258 286 295 271 264 275 297 290 141 100 90 91 85 80 84 79 73 65 51 42 33 40 41 26 24 27 30 30 30 32 32 33 39 43 46 46 44 43 42 42 42 41 39 41 43 38 32 29 28 27 22 13 355 336 324 306 286 271 269 268 263 261 258 255
250 264 265 222 223 231 243 257 245 234 261 264 237 225 235 245 257 281 334 353 346 310 287 65 332 263 257 291 300 291 144 102 94 98 95 88 81 74 67 60 48 41 40 44 42 31 25 24 28 30 30 33 33 33 38 44 49 49 48 46 44 43 43 43 43 45 48 46 40 35 30 26 22 19 16 17 19 4 347 322 294 285 281 277 269 263
237 214 86 204 222 211 220 252 247 223 240 255 247 273 276 301 324 304 328 331 210 274 249 123 202 256 273 280 268 265 224 118 105 102 100 94 85 82 74 61 41 27 38 48 43 35 28 22 25 29 30 32 33 34 39 46 50 51 50 48 45 44 43 43 45 48 50 48 44 40 37 33 27 22 18 19 22 15 1 345 320 303 301 301 291 277
204 174 85 88 214 204 216 249 234 195 201 239 244 340 22 49 329 313 169 220 223 279 268 206 211 256 270 251 239 255 240 140 120 111 101 97 92 90 85 75 56 32 31 44 45 37 31 25 27 31 32 35 36 36 41 46 49 50 50 49 47 45 44 44 45 47 49 47 44 43 42 38 32 25 21 18 17 13 356 338 324 313 309 310 311 301
159 163 161 166 184 207 210 233 215 179 185 215 210 95 59 85 102 134 178 227 245 295 270 213 199 244 270 243 226 244 233 151 133 131 115 113 109 99 97 94 86 65 44 45 50 44 37 32 33 36 36 39 40 41 44 47 50 51 50 49 48 46 44 43 44 45 46 45 44 43 40 36 31 27 23 18 14 11 1 348 331 318 311 310 313 312
27 142 204 179 179 207 186 103 6 166 179 196 182 105 96 178 208 196 199 215 224 257 246 206 184 210 272 260 223 231 217 144 132 132 114 113 111 102 99 97 96 88 70 56 52 46 43 38 36 38 39 40 42 43 46 50 51 52 50 49 48 46 44 44 44 45 44 43 42 39 35 31 27 24 21 18 15 9 2 355 345 335 326 315 310 309
142 86 337 231 205 192 117 81 14 53 132 165 136 9 269 240 221 201 188 165 186 260 245 212 194 193 271 283 229 216 169 144 144 145 131 123 115 108 102 92 84 80 75 67 57 47 45 45 42 40 39 41 45 46 47 49 50 51 50 50 49 47 45 45 44 45 44 43 41 38 34 29 24 20 18 17 14 8 3 358 353 349 345 336 321 309
194 164 233 234 220 130 108 86 5 35 76 118 105 314 290 275 203 171 130 130 188 257 260 234 202 193 217 278 322 43 91 145 154 156 148 135 120 111 103 95 85 73 70 70 65 53 46 43 41 41 41 42 45 46 45 46 48 50 50 51 50 48 46 46 46 45 44 43 42 40 37 34 29 24 20 16 11 6 2 358 353 352 351 350 343 328
213 212 196 180 259 151 134 118 7 9 62 131 180 204 260 311 222 194 183 162 210 240 273 351 65 190 215 270 313 42 53 83 107 120 126 118 109 102 97 94 86 75 72 70 68 60 46 36 32 40 44 43 43 44 44 44 47 49 48 49 50 47 46 47 47 46 45 43 42 40 38 36 34 32 27 21 16 11 5 358 353 352 350 348 347 341
281 261 176 155 323 183 168 163 177 272 164 167 186 175 175 224 260 245 231 225 237 239 294 16 27 13 245 291 327 71 64 47 71 91 99 103 104 100 97 94 86 77 67 64 62 54 41 32 41 46 45 44 43 43 44 45 46 48 47 47 48 46 46 47 46 46 45 43 41 40 39 37 36 34 30 26 22 18 13 8 2 357 351 347 343 338
244 293 188 170 162 173 185 202 206 130 163 195 202 163 173 194 214 238 245 245 251 273 312 4 29 258 208 332 52 86 84 67 74 82 86 89 93 92 91 87 80 71 59 58 59 51 39 38 44 46 47 46 45 44 45 46 46 48 47 46 46 44 44 45 46 46 45 43 42 42 41 39 38 35 31 29 26 21 19 16 11 6 359 353 346 339
224 257 164 155 184 164 186 243 347 66 142 231 216 109 198 210 196 244 263 247 241 297 285 239 226 249 191 93 92 94 89 85 85 88 89 87 84 83 78 74 74 73 62 53 48 40 35 40 45 47 47 47 46 45 45 45 46 47 47 46 47 46 45 46 46 46 46 45 43 43 43 41 41 39 35 32 29 25 23 21 16 11 7 2 356 349
227 233 123 175 224 166 187 240 43 87 103 21 60 131 232 219 137 249 282 272 246 261 259 239 249 275 7 82 115 107 96 98 98 95 96 94 88 82 77 82 85 77 65 54 45 41 40 44 47 48 48 46 45 45 46 45 45 46 46 46 46 46 46 46 46 46 45 45 43 41 42 41 41 40 37 34 32 30 29 27 22 17 14 11 4 359
152 244 230 201 191 249 285 19 355 240 114 100 193 247 287 347 44 157 253 269 258 257 253 251 268 276 277 258 132 121 113 110 108 104 104 104 100 98 103 104 92 78 73 66 58 47 46 47 45 46 46 43 42 44 45 45 45 46 46 45 44 43 42 42 43 43 43 43 41 39 39 39 40 40 37 35 33 32 32 29 27 24 20 16 10 4
89 301 257 191 145 196 216 38 318 273 86 119 194 295 52 339 300 247 214 229 243 258 257 242 260 266 247 236 152 159 145 126 125 125 120 119 119 121 124 115 104 98 92 72 55 35 39 48 43 40 38 36 38 41 43 43 42 43 41 39 39 38 36 36 37 39 39 39 37 35 35 35 36 37 35 33 30 30 29 27 25 25 23 20 15 10
73 166 262 88 96 101 44 54 156 298 0 55 44 357 82 171 213 226 253 243 232 257 267 247 255 261 251 303 347 135 139 139 143 137 125 122 123 127 130 128 129 128 125 106 91 66 53 55 48 41 31 28 31 32 37 35 33 37 37 35 35 33 30 30 30 31 31 30 26 24 24 24 25 27 27 27 26 25 24 21 20 20 19 19 17 14
55 223 244 329 62 75 84 198 186 210 251 63 48 292 242 197 214 242 271 240 219 251 264 257 258 251 246 351 29 96 118 137 138 128 122 119 121 131 141 150 161 159 160 170 168 156 106 76 70 59 46 42 35 29 30 27 27 32 33 33 33 30 27 25 25 26 24 21 17 12 12 13 13 14 14 17 18 17 17 15 13 12 11 12 12 11
276 233 244 275 275 231 227 222 215 247 281 301 180 209 215 211 203 260 261 228 201 231 238 251 261 247 215 341 41 86 97 107 112 115 122 138 152 161 167 168 170 167 164 164 151 128 102 81 77 71 67 65 54 44 39 33 31 29 27 26 24 23 20 18 20 22 20 17 12 7 6 5 5 3 2 4 5 6 7 7 6 5 4 3 3 3
83 88 279 271 260 260 270 277 285 296 299 291 271 230 225 231 202 237 257 256 253 255 245 251 260 251 226 310 55 91 105 108 120 135 144 163 175 169 170 170 166 163 157 153 139 124 111 87 74 75 73 61 51 47 40 47 47 35 29 22 17 16 12 9 12 14 14 11 6 4 2 0 0 359 357 355 354 354 356 356 355 356 356 355 354 354
57 81 239 265 266 272 278 278 279 282 278 269 269 265 260 286 292 245 225 203 283 269 266 261 258 261 269 292 62 99 114 116 141 160 157 168 172 166 172 169 164 164 153 147 138 129 126 108 83 94 85 51 38 37 29 42 50 37 31 24 20 17 8 5 7 6 7 5 -0 359 357 354 355 355 354 351 346 344 346 346 345 345 346 347 347 346
319 62 124 279 281 287 285 283 296 346 11 345 302 340 357 342 336 341 283 169 208 237 247 257 261 262 247 122 105 132 138 147 172 171 158 164 171 177 180 168 163 161 147 139 122 105 106 111 136 140 98 64 44 35 27 31 30 22 20 18 18 15 8 5 3 360 2 1 356 356 354 350 349 349 350 348 341 337 338 338 339 338 338 340 339 337
261 199 125 187 237 255 267 269 268 41 21 332 301 324 333 317 309 319 312 277 265 249 247 263 267 272 291 248 223 199 187 190 191 185 183 192 193 191 183 171 169 167 158 155 142 131 152 227 262 335 18 9 12 13 7 4 360 355 355 357 1 3 1 358 353 351 354 355 353 352 350 346 343 342 343 342 338 333 331 332 333 332 333 335 334 332
81 263 217 210 230 245 259 272 290 317 306 283 292 297 290 283 282 283 267 257 269 291 281 263 266 278 286 277 267 219 193 200 200 202 210 215 213 203 185 174 173 171 175 183 189 207 233 259 272 293 320 325 337 344 341 340 340 338 340 341 344 347 348 347 343 342 345 347 346 345 343 340 337 335 335 336 333 328 327 328 327 326 327 329 330 329
117 248 241 230 241 252 262 277 291 299 287 274 278 279 275 275 269 254 250 255 273 295 269 261 270 278 275 277 290 293 251 229 222 226 227 219 210 199 179 170 169 176 193 201 205 219 228 239 252 258 268 278 289 299 306 312 316 320 323 325 327 330 333 334 332 332 335 337 337 337 335 332 330 329 328 328 326 325 324 324 323 322 323 323 324 324
123 249 259 255 261 265 267 272 276 280 280 275 272 271 274 274 264 256 258 261 257 255 261 268 272 270 271 278 286 293 293 287 280 275 263 211 182 174 165 167 172 182 199 205 204 210 215 223 231 237 246 254 261 270 278 286 296 302 301 303 310 312 314 318 319 321 323 325 325 326 326 324 323 323 323 321 320 320 320 320 319 319 318 318 318 318
105 240 255 252 263 270 267 267 272 276 276 273 268 266 266 266 266 268 270 267 260 260 266 272 270 269 275 281 282 291 301 304 314 327 351 91 124 142 152 165 180 192 204 206 206 209 210 212 218 226 235 240 244 253 263 272 279 280 281 290 298 299 299 305 309 311 312 312 313 314 316 316 315 316 316 315 314 314 314 314 313 313 312 313 313 313
0 249 282 318 289 275 269 273 282 283 280 279 277 271 265 264 269 270 268 268 268 268 267 268 270 273 275 280 291 323 5 15 37 46 53 83 110 131 154 179 195 203 209 207 205 206 205 208 218 225 230 232 237 246 254 261 267 267 273 285 291 291 293 298 303 305 304 302 303 306 308 308 308 308 308 307 308 308 308 308 307 306 306 307 308 309
317 277 321 333 273 267 271 276 283 319 319 284 270 265 261 262 264 260 259 261 260 265 270 271 271 270 265 351 31 65 65 45 49 65 63 94 128 141 172 211 214 213 220 216 209 205 202 206 217 225 231 235 237 242 247 253 260 263 273 284 288 288 291 297 303 304 301 299 299 300 301 301 301 300 299 299 299 301 302 302 302 301 301 302 303 305
198 206 247 246 255 264 265 263 275 26 315 270 258 255 252 253 255 256 257 256 253 257 265 266 259 239 206 123 3 6 73 63 35 30 43 47 68 119 200 230 236 232 231 227 218 207 205 216 227 230 234 237 240 244 247 252 262 273 280 285 285 285 292 300 304 303 301 299 298 297 296 296 296 295 294 295 295 295 296 295 295 295 295 296 298 300
198 195 205 230 247 261 267 286 4 258 258 261 236 219 239 247 253 257 257 252 251 253 258 265 259 194 180 192 191 150 102 87 29 11 44 91 61 285 261 250 241 239 243 246 235 220 219 227 232 234 237 242 245 243 248 268 285 289 287 284 283 288 298 303 303 302 300 298 297 296 295 294 293 292 293 293 293 292 292 292 292 292 292 293 295 295
203 204 214 228 241 259 283 322 286 243 246 262 177 210 246 255 249 256 261 258 259 265 272 278 272 209 178 166 138 118 91 44 20 341 295 251 216 232 250 250 245 245 253 260 257 250 248 245 246 252 254 251 245 248 288 305 303 295 288 285 288 295 302 304 302 299 298 297 298 298 297 295 295 295 295 294 292 291 292 294 295 295 295 295 293 292
206 209 214 221 236 257 253 231 241 249 263 279 264 255 276 264 243 260 271 260 251 253 261 270 248 167 147 124 105 106 111 43 348 291 261 250 234 228 231 234 238 241 240 249 255 259 266 272 274 275 271 261 303 319 317 313 304 296 295 297 298 300 304 304 301 299 298 298 299 299 298 298 299 298 297 296 295 295 296 297 297 296 296 295 293 292
206 207 215 229 230 228 227 231 251 288 294 273 266 267 245 191 212 232 263 259 251 248 229 175 154 152 144 136 138 140 116 59 350 293 260 247 237 231 229 226 231 242 250 258 261 263 273 283 288 294 320 343 336 328 320 311 304 305 307 307 306 305 305 304 301 301 301 301 301 301 301 302 301 300 299 299 299 298 298 297 296 295 295 295 293 292
208 207 207 227 238 226 240 253 258 275 274 253 242 267 306 109 128 118 341 285 281 287 261 185 175 165 148 154 176 158 104 60 326 285 285 271 223 215 223 236 242 248 253 259 265 273 281 285 301 31 357 347 347 336 319 312 313 315 314 313 311 309 307 307 305 306 305 303 303 304 303 303 302 301 300 300 299 298 297 296 296 295 294 294 292 291
201 211 198 218 245 235 242 254 247 257 267 207 190 249 247 120 73 35 347 305 294 307 302 151 160 165 160 177 183 141 117 160 266 271 272 180 186 207 220 236 243 246 252 263 274 280 285 298 18 12 2 2 4 348 325 320 321 322 319 316 314 312 311 310 310 309 308 306 305 305 304 304 302 300 299 298 297 297 297 296 295 295 294 292 291 290
180 204 196 214 235 233 236 247 245 254 260 191 186 218 215 123 67 30 309 278 219 265 254 143 159 184 182 189 181 144 161 211 234 251 244 229 247 257 252 246 239 241 254 263 264 257 146 56 27 27 24 16 3 343 330 325 324 324 321 318 315 313 313 312 312 310 308 307 306 305 304 304 302 301 300 298 298 298 297 296 295 295 294 293 291 290
166 205 214 219 230 233 237 247 252 251 240 202 194 197 171 91 57 293 265 254 182 226 229 164 181 201 185 182 189 183 208 219 221 244 253 253 266 270 266 260 252 249 251 241 217 180 89 48 41 42 31 7 342 330 327 326 325 324 321 318 315 313 313 312 311 309 308 308 307 306 305 306 304 303 302 301 300 298 296 296 296 295 295 294 292 291
145 163 244 230 227 230 234 242 256 264 240 151 159 212 134 102 249 238 233 186 174 212 220 189 199 208 192 197 208 214 233 244 246 256 262 262 262 263 268 270 267 258 219 157 129 89 71 52 35 18 351 334 329 328 328 327 324 322 320 316 314 313 313 312 310 309 309 308 308 308 308 308 307 306 305 303 302 300 298 298 297 295 294 294 293 292
176 177 234 225 210 215 234 237 244 266 253 128 114 0 211 187 213 216 202 193 189 192 199 201 209 213 208 216 230 239 255 265 264 262 263 262 258 256 264 268 261 222 143 124 99 65 47 19 8 348 329 326 328 329 329 326 323 322 319 314 314 314 313 311 311 311 309 309 309 309 310 309 309 309 307 305 304 300 298 298 298 296 295 294 293 292
209 181 210 228 191 176 213 228 205 194 195 152 148 191 225 219 216 196 190 226 214 190 192 207 219 223 220 222 236 249 259 263 260 260 262 262 261 263 265 260 195 125 113 109 100 60 358 342 341 330 323 323 327 328 327 326 324 319 314 313 315 316 314 313 313 312 310 310 309 309 310 310 310 309 307 306 305 301 299 298 298 296 295 293 292 291
219 200 206 232 223 189 204 233 220 194 235 195 172 196 226 244 251 232 215 230 236 218 207 212 227 235 230 225 236 250 256 255 258 258 253 255 265 262 244 158 119 115 115 116 108 355 332 330 328 323 319 320 325 326 324 324 321 315 312 314 317 317 315 314 314 312 311 310 310 310 311 310 309 308 307 306 305 301 298 298 297 296 296 295 293 291
230 229 222 234 253 256 245 247 259 273 268 252 224 215 226 243 257 252 239 238 239 234 223 219 226 234 230 227 237 248 251 256 265 265 256 259 266 233 146 124 115 115 118 114 54 324 322 323 320 317 315 318 323 323 320 318 316 312 312 315 316 316 316 315 313 311 310 310 310 310 311 310 309 308 307 305 303 300 298 298 298 297 298 297 294 291
243 245 242 238 251 265 252 235 237 247 255 257 253 244 241 246 251 249 240 234 232 231 227 223 226 232 233 229 227 238 252 259 263 266 265 261 248 158 126 121 117 113 107 80 335 317 318 319 317 317 317 318 321 321 317 315 314 312 311 314 316 318 316 314 312 311 310 311 311 311 311 310 307 307 307 306 305 303 301 300 299 298 297 296 293 290
234 233 235 232 237 241 238 238 243 247 250 253 251 245 242 245 247 245 240 235 232 233 229 222 220 224 230 231 225 233 251 255 252 258 262 241 167 126 116 115 110 98 46 344 324 316 317 316 313 315 316 316 318 318 316 314 314 313 314 315 317 318 316 312 311 310 310 311 311 311 310 308 307 306 306 306 305 304 302 302 300 296 293 291 289 287
232 238 237 225 233 243 241 236 242 255 260 257 252 248 246 245 246 247 248 248 252 253 246 237 228 215 216 232 234 231 243 250 249 249 241 188 121 100 97 95 74 8 335 326 316 312 313 312 311 312 312 312 315 317 314 312 312 315 317 318 319 318 314 311 311 310 309 310 311 310 309 308 307 307 306 305 305 303 300 299 297 294 291 289 287 285
232 244 248 245 246 249 240 227 227 242 254 254 249 243 240 237 237 240 242 245 252 248 233 229 241 240 229 235 233 225 237 253 257 217 165 118 90 82 74 49 0 333 322 314 310 309 310 310 311 311 309 311 314 314 311 310 312 317 320 321 320 318 314 311 311 309 309 310 309 308 308 308 307 306 306 304 303 302 300 297 295 293 292 291 290 289
231 238 239 238 244 247 241 227 219 225 242 248 246 244 239 225 221 228 232 236 244 240 219 211 229 250 245 233 220 213 221 229 91 97 99 85 77 73 49 0 329 315 308 306 308 310 309 309 310 310 309 311 313 311 309 310 314 318 321 321 321 318 313 311 310 307 307 308 307 306 307 307 306 305 303 301 301 301 300 299 297 295 293 292 293 294